Year,Month,Day,Hour,Minute,Value (Times are PST for temperature in C)
2013,05,05,00,00,14.00
2013,05,05,00,01,14.00
2013,05,05,00,02,14.10
2013,05,05,00,03,14.20
2013,05,05,00,04,14.30
2013,05,05,00,05,14.30
2013,05,05,00,06,14.30
2013,05,05,00,07,14.20
2013,05,05,00,08,14.00
2013,05,05,00,09,13.90
2013,05,05,00,10,13.80
2013,05,05,00,11,13.70
2013,05,05,00,12,13.60
2013,05,05,00,13,13.50
2013,05,05,00,14,13.50
2013,05,05,00,15,13.40
2013,05,05,00,16,13.30
2013,05,05,00,17,13.30
2013,05,05,00,18,13.20
2013,05,05,00,19,13.20
2013,05,05,00,20,13.10
2013,05,05,00,21,13.10
2013,05,05,00,22,13.00
2013,05,05,00,23,13.00
2013,05,05,00,24,12.90
2013,05,05,00,25,12.90
2013,05,05,00,26,12.90
2013,05,05,00,27,12.90
2013,05,05,00,28,12.90
2013,05,05,00,29,12.90
2013,05,05,00,30,12.90
2013,05,05,00,31,12.90
2013,05,05,00,32,12.90
2013,05,05,00,33,13.00
2013,05,05,00,34,13.00
2013,05,05,00,35,13.00
2013,05,05,00,36,13.00
2013,05,05,00,37,13.00
2013,05,05,00,38,13.00
2013,05,05,00,39,13.00
2013,05,05,00,40,12.90
2013,05,05,00,41,12.90
2013,05,05,00,42,12.90
2013,05,05,00,43,12.90
2013,05,05,00,44,12.80
2013,05,05,00,45,12.80
2013,05,05,00,46,12.80
2013,05,05,00,47,12.80
2013,05,05,00,48,12.70
2013,05,05,00,49,12.70
2013,05,05,00,50,12.70
2013,05,05,00,51,12.70
2013,05,05,00,52,12.70
2013,05,05,00,53,12.60
2013,05,05,00,54,12.60
2013,05,05,00,55,12.60
2013,05,05,00,56,12.50
2013,05,05,00,57,12.50
2013,05,05,00,58,12.40
2013,05,05,00,59,12.40
2013,05,05,01,00,12.40
2013,05,05,01,01,12.40
2013,05,05,01,02,12.30
2013,05,05,01,03,12.30
2013,05,05,01,04,12.30
2013,05,05,01,05,12.30
2013,05,05,01,06,12.30
2013,05,05,01,07,12.30
2013,05,05,01,08,12.40
2013,05,05,01,09,12.40
2013,05,05,01,10,12.40
2013,05,05,01,11,12.40
2013,05,05,01,12,12.40
2013,05,05,01,13,12.50
2013,05,05,01,14,12.50
2013,05,05,01,15,12.60
2013,05,05,01,16,12.60
2013,05,05,01,17,12.70
2013,05,05,01,18,12.70
2013,05,05,01,19,12.70
2013,05,05,01,20,12.80
2013,05,05,01,21,12.80
2013,05,05,01,22,12.80
2013,05,05,01,23,12.90
2013,05,05,01,24,12.90
2013,05,05,01,25,13.00
2013,05,05,01,26,13.10
2013,05,05,01,27,13.20
2013,05,05,01,28,13.20
2013,05,05,01,29,13.30
2013,05,05,01,30,13.30
2013,05,05,01,31,13.30
2013,05,05,01,32,13.30
2013,05,05,01,33,13.30
2013,05,05,01,34,13.30
2013,05,05,01,35,13.30
2013,05,05,01,36,13.30
2013,05,05,01,37,13.30
2013,05,05,01,38,13.30
2013,05,05,01,39,13.30
2013,05,05,01,40,13.30
2013,05,05,01,41,13.30
2013,05,05,01,42,13.30
2013,05,05,01,43,13.30
2013,05,05,01,44,13.30
2013,05,05,01,45,13.20
2013,05,05,01,46,13.20
2013,05,05,01,47,13.20
2013,05,05,01,48,13.20
2013,05,05,01,49,13.30
2013,05,05,01,50,13.30
2013,05,05,01,51,13.30
2013,05,05,01,52,13.30
2013,05,05,01,53,13.30
2013,05,05,01,54,13.30
2013,05,05,01,55,13.30
2013,05,05,01,56,13.30
2013,05,05,01,57,13.30
2013,05,05,01,58,13.30
2013,05,05,01,59,13.30
2013,05,05,02,00,13.30
2013,05,05,02,01,13.30
2013,05,05,02,02,13.30
2013,05,05,02,03,13.20
2013,05,05,02,04,13.20
2013,05,05,02,05,13.20
2013,05,05,02,06,13.20
2013,05,05,02,07,13.10
2013,05,05,02,08,13.10
2013,05,05,02,09,13.10
2013,05,05,02,10,13.00
2013,05,05,02,11,13.00
2013,05,05,02,12,13.00
2013,05,05,02,13,12.90
2013,05,05,02,14,12.90
2013,05,05,02,15,12.90
2013,05,05,02,16,12.90
2013,05,05,02,17,12.90
2013,05,05,02,18,12.90
2013,05,05,02,19,12.90
2013,05,05,02,20,12.90
2013,05,05,02,21,12.90
2013,05,05,02,22,12.80
2013,05,05,02,23,12.80
2013,05,05,02,24,12.80
2013,05,05,02,25,12.80
2013,05,05,02,26,12.80
2013,05,05,02,27,12.80
2013,05,05,02,28,12.80
2013,05,05,02,29,12.80
2013,05,05,02,30,12.80
2013,05,05,02,31,12.80
2013,05,05,02,32,12.80
2013,05,05,02,33,12.80
2013,05,05,02,34,12.90
2013,05,05,02,35,12.90
2013,05,05,02,36,12.90
2013,05,05,02,37,12.90
2013,05,05,02,38,12.90
2013,05,05,02,39,12.90
2013,05,05,02,40,12.90
2013,05,05,02,41,13.00
2013,05,05,02,42,13.00
2013,05,05,02,43,13.00
2013,05,05,02,44,13.00
2013,05,05,02,45,13.00
2013,05,05,02,46,13.10
2013,05,05,02,47,13.10
2013,05,05,02,48,13.10
2013,05,05,02,49,13.10
2013,05,05,02,50,13.10
2013,05,05,02,51,13.20
2013,05,05,02,52,13.20
2013,05,05,02,53,13.30
2013,05,05,02,54,13.40
2013,05,05,02,55,13.40
2013,05,05,02,56,13.60
2013,05,05,02,57,13.70
2013,05,05,02,58,13.70
2013,05,05,02,59,13.80
2013,05,05,03,00,13.70
2013,05,05,03,01,13.70
2013,05,05,03,02,13.60
2013,05,05,03,03,13.40
2013,05,05,03,04,13.20
2013,05,05,03,05,13.10
2013,05,05,03,06,13.00
2013,05,05,03,07,12.80
2013,05,05,03,08,12.70
2013,05,05,03,09,12.60
2013,05,05,03,10,12.50
2013,05,05,03,11,12.30
2013,05,05,03,12,12.20
2013,05,05,03,13,12.00
2013,05,05,03,14,11.80
2013,05,05,03,15,11.70
2013,05,05,03,16,11.70
2013,05,05,03,17,11.70
2013,05,05,03,18,11.80
2013,05,05,03,19,11.80
2013,05,05,03,20,12.00
2013,05,05,03,21,12.30
2013,05,05,03,22,12.60
2013,05,05,03,23,12.90
2013,05,05,03,24,13.30
2013,05,05,03,25,13.80
2013,05,05,03,26,14.20
2013,05,05,03,27,14.60
2013,05,05,03,28,14.90
2013,05,05,03,29,15.20
2013,05,05,03,30,15.50
2013,05,05,03,31,15.70
2013,05,05,03,32,15.90
2013,05,05,03,33,16.00
2013,05,05,03,34,16.10
2013,05,05,03,35,16.20
2013,05,05,03,36,16.20
2013,05,05,03,37,16.30
2013,05,05,03,38,16.40
2013,05,05,03,39,16.40
2013,05,05,03,40,16.40
2013,05,05,03,41,16.40
2013,05,05,03,42,16.50
2013,05,05,03,43,16.50
2013,05,05,03,44,16.50
2013,05,05,03,45,16.50
2013,05,05,03,46,16.40
2013,05,05,03,47,16.40
2013,05,05,03,48,16.40
2013,05,05,03,49,16.40
2013,05,05,03,50,16.40
2013,05,05,03,51,16.40
2013,05,05,03,52,16.30
2013,05,05,03,53,16.30
2013,05,05,03,54,16.30
2013,05,05,03,55,16.30
2013,05,05,03,56,16.20
2013,05,05,03,57,16.20
2013,05,05,03,58,16.20
2013,05,05,03,59,16.10
2013,05,05,04,00,16.10
2013,05,05,04,01,16.00
2013,05,05,04,02,16.00
2013,05,05,04,03,15.90
2013,05,05,04,04,15.90
2013,05,05,04,05,15.80
2013,05,05,04,06,15.80
2013,05,05,04,07,15.80
2013,05,05,04,08,15.70
2013,05,05,04,09,15.70
2013,05,05,04,10,15.60
2013,05,05,04,11,15.60
2013,05,05,04,12,15.60
2013,05,05,04,13,15.50
2013,05,05,04,14,15.50
2013,05,05,04,15,15.40
2013,05,05,04,16,15.40
2013,05,05,04,17,15.30
2013,05,05,04,18,15.30
2013,05,05,04,19,15.20
2013,05,05,04,20,15.20
2013,05,05,04,21,15.10
2013,05,05,04,22,15.00
2013,05,05,04,23,15.00
2013,05,05,04,24,15.00
2013,05,05,04,25,14.80
2013,05,05,04,26,14.60
2013,05,05,04,27,14.50
2013,05,05,04,28,14.40
2013,05,05,04,29,14.20
2013,05,05,04,30,14.10
2013,05,05,04,31,14.00
2013,05,05,04,32,14.00
2013,05,05,04,33,13.90
2013,05,05,04,34,13.80
2013,05,05,04,35,13.80
2013,05,05,04,36,13.80
2013,05,05,04,37,13.70
2013,05,05,04,38,13.60
2013,05,05,04,39,13.60
2013,05,05,04,40,13.60
2013,05,05,04,41,13.60
2013,05,05,04,42,13.60
2013,05,05,04,43,13.60
2013,05,05,04,44,13.60
2013,05,05,04,45,13.60
2013,05,05,04,46,13.60
2013,05,05,04,47,13.60
2013,05,05,04,48,13.60
2013,05,05,04,49,13.60
2013,05,05,04,50,13.60
2013,05,05,04,51,13.60
2013,05,05,04,52,13.60
2013,05,05,04,53,13.60
2013,05,05,04,54,13.50
2013,05,05,04,55,13.50
2013,05,05,04,56,13.50
2013,05,05,04,57,13.50
2013,05,05,04,58,13.40
2013,05,05,04,59,13.40
2013,05,05,05,00,13.30
2013,05,05,05,01,13.20
2013,05,05,05,02,13.10
2013,05,05,05,03,13.00
2013,05,05,05,04,13.00
2013,05,05,05,05,12.90
2013,05,05,05,06,12.80
2013,05,05,05,07,12.80
2013,05,05,05,08,12.80
2013,05,05,05,09,12.80
2013,05,05,05,10,12.70
2013,05,05,05,11,12.70
2013,05,05,05,12,12.70
2013,05,05,05,13,12.80
2013,05,05,05,14,12.80
2013,05,05,05,15,12.90
2013,05,05,05,16,12.90
2013,05,05,05,17,13.00
2013,05,05,05,18,13.00
2013,05,05,05,19,13.10
2013,05,05,05,20,13.10
2013,05,05,05,21,13.10
2013,05,05,05,22,13.00
2013,05,05,05,23,13.00
2013,05,05,05,24,13.00
2013,05,05,05,25,12.90
2013,05,05,05,26,12.90
2013,05,05,05,27,12.80
2013,05,05,05,28,12.70
2013,05,05,05,29,12.70
2013,05,05,05,30,12.60
2013,05,05,05,31,12.50
2013,05,05,05,32,12.50
2013,05,05,05,33,12.40
2013,05,05,05,34,12.40
2013,05,05,05,35,12.30
2013,05,05,05,36,12.30
2013,05,05,05,37,12.30
2013,05,05,05,38,12.30
2013,05,05,05,39,12.30
2013,05,05,05,40,12.30
2013,05,05,05,41,12.30
2013,05,05,05,42,12.30
2013,05,05,05,43,12.30
2013,05,05,05,44,12.40
2013,05,05,05,45,12.40
2013,05,05,05,46,12.40
2013,05,05,05,47,12.40
2013,05,05,05,48,12.40
2013,05,05,05,49,12.50
2013,05,05,05,50,12.50
2013,05,05,05,51,12.50
2013,05,05,05,52,12.50
2013,05,05,05,53,12.50
2013,05,05,05,54,12.40
2013,05,05,05,55,12.40
2013,05,05,05,56,12.40
2013,05,05,05,57,12.30
2013,05,05,05,58,12.30
2013,05,05,05,59,12.30
2013,05,05,06,00,12.30
2013,05,05,06,01,12.20
2013,05,05,06,02,12.20
2013,05,05,06,03,12.10
2013,05,05,06,04,12.10
2013,05,05,06,05,12.10
2013,05,05,06,06,12.00
2013,05,05,06,07,12.00
2013,05,05,06,08,12.00
2013,05,05,06,09,11.90
2013,05,05,06,10,11.90
2013,05,05,06,11,11.80
2013,05,05,06,12,11.80
2013,05,05,06,13,11.70
2013,05,05,06,14,11.60
2013,05,05,06,15,11.50
2013,05,05,06,16,11.50
2013,05,05,06,17,11.40
2013,05,05,06,18,11.30
2013,05,05,06,19,11.30
2013,05,05,06,20,11.20
2013,05,05,06,21,11.20
2013,05,05,06,22,11.20
2013,05,05,06,23,11.20
2013,05,05,06,24,11.20
2013,05,05,06,25,11.20
2013,05,05,06,26,11.20
2013,05,05,06,27,11.20
2013,05,05,06,28,11.20
2013,05,05,06,29,11.20
2013,05,05,06,30,11.10
2013,05,05,06,31,11.20
2013,05,05,06,32,11.20
2013,05,05,06,33,11.20
2013,05,05,06,34,11.20
2013,05,05,06,35,11.30
2013,05,05,06,36,11.40
2013,05,05,06,37,11.50
2013,05,05,06,38,11.60
2013,05,05,06,39,11.70
2013,05,05,06,40,11.80
2013,05,05,06,41,11.80
2013,05,05,06,42,11.90
2013,05,05,06,43,11.90
2013,05,05,06,44,12.00
2013,05,05,06,45,12.10
2013,05,05,06,46,12.20
2013,05,05,06,47,12.20
2013,05,05,06,48,12.10
2013,05,05,06,49,12.10
2013,05,05,06,50,12.00
2013,05,05,06,51,12.00
2013,05,05,06,52,11.90
2013,05,05,06,53,11.80
2013,05,05,06,54,11.80
2013,05,05,06,55,11.70
2013,05,05,06,56,11.60
2013,05,05,06,57,11.60
2013,05,05,06,58,11.50
2013,05,05,06,59,11.40
2013,05,05,07,00,11.40
2013,05,05,07,01,11.40
2013,05,05,07,02,11.30
2013,05,05,07,03,11.30
2013,05,05,07,04,11.30
2013,05,05,07,05,11.30
2013,05,05,07,06,11.40
2013,05,05,07,07,11.40
2013,05,05,07,08,11.40
2013,05,05,07,09,11.40
2013,05,05,07,10,11.50
2013,05,05,07,11,11.50
2013,05,05,07,12,11.60
2013,05,05,07,13,11.60
2013,05,05,07,14,11.60
2013,05,05,07,15,11.60
2013,05,05,07,16,11.70
2013,05,05,07,17,11.70
2013,05,05,07,18,11.70
2013,05,05,07,19,11.80
2013,05,05,07,20,11.80
2013,05,05,07,21,11.80
2013,05,05,07,22,11.80
2013,05,05,07,23,11.80
2013,05,05,07,24,11.90
2013,05,05,07,25,11.90
2013,05,05,07,26,11.90
2013,05,05,07,27,11.90
2013,05,05,07,28,12.00
2013,05,05,07,29,12.00
2013,05,05,07,30,12.10
2013,05,05,07,31,12.10
2013,05,05,07,32,12.20
2013,05,05,07,33,12.20
2013,05,05,07,34,12.30
2013,05,05,07,35,12.40
2013,05,05,07,36,12.50
2013,05,05,07,37,12.70
2013,05,05,07,38,12.80
2013,05,05,07,39,12.90
2013,05,05,07,40,13.00
2013,05,05,07,41,13.20
2013,05,05,07,42,13.40
2013,05,05,07,43,13.50
2013,05,05,07,44,13.70
2013,05,05,07,45,13.80
2013,05,05,07,46,13.90
2013,05,05,07,47,14.00
2013,05,05,07,48,14.10
2013,05,05,07,49,14.20
2013,05,05,07,50,14.30
2013,05,05,07,51,14.40
2013,05,05,07,52,14.50
2013,05,05,07,53,14.50
2013,05,05,07,54,14.60
2013,05,05,07,55,14.70
2013,05,05,07,56,14.70
2013,05,05,07,57,14.70
2013,05,05,07,58,14.80
2013,05,05,07,59,14.80
2013,05,05,08,00,14.80
2013,05,05,08,01,14.90
2013,05,05,08,02,15.00
2013,05,05,08,03,15.00
2013,05,05,08,04,15.00
2013,05,05,08,05,15.00
2013,05,05,08,06,15.10
2013,05,05,08,07,15.20
2013,05,05,08,08,15.30
2013,05,05,08,09,15.40
2013,05,05,08,10,15.40
2013,05,05,08,11,15.50
2013,05,05,08,12,15.60
2013,05,05,08,13,15.60
2013,05,05,08,14,15.70
2013,05,05,08,15,15.80
2013,05,05,08,16,15.90
2013,05,05,08,17,16.00
2013,05,05,08,18,16.10
2013,05,05,08,19,16.10
2013,05,05,08,20,16.20
2013,05,05,08,21,16.30
2013,05,05,08,22,16.40
2013,05,05,08,23,16.50
2013,05,05,08,24,16.50
2013,05,05,08,25,16.60
2013,05,05,08,26,16.70
2013,05,05,08,27,16.70
2013,05,05,08,28,16.80
2013,05,05,08,29,16.80
2013,05,05,08,30,16.80
2013,05,05,08,31,16.80
2013,05,05,08,32,16.80
2013,05,05,08,33,16.90
2013,05,05,08,34,16.90
2013,05,05,08,35,16.90
2013,05,05,08,36,17.00
2013,05,05,08,37,17.00
2013,05,05,08,38,17.10
2013,05,05,08,39,17.10
2013,05,05,08,40,17.10
2013,05,05,08,41,17.20
2013,05,05,08,42,17.20
2013,05,05,08,43,17.30
2013,05,05,08,44,17.30
2013,05,05,08,45,17.30
2013,05,05,08,46,17.40
2013,05,05,08,47,17.40
2013,05,05,08,48,17.40
2013,05,05,08,49,17.50
2013,05,05,08,50,17.50
2013,05,05,08,51,17.50
2013,05,05,08,52,17.50
2013,05,05,08,53,17.50
2013,05,05,08,54,17.50
2013,05,05,08,55,17.50
2013,05,05,08,56,17.50
2013,05,05,08,57,17.60
2013,05,05,08,58,17.60
2013,05,05,08,59,17.70
2013,05,05,09,00,17.70
2013,05,05,09,01,17.80
2013,05,05,09,02,17.80
2013,05,05,09,03,17.80
2013,05,05,09,04,17.90
2013,05,05,09,05,17.90
2013,05,05,09,06,17.90
2013,05,05,09,07,17.90
2013,05,05,09,08,18.00
2013,05,05,09,09,18.00
2013,05,05,09,10,18.00
2013,05,05,09,11,18.10
2013,05,05,09,12,18.00
2013,05,05,09,13,18.10
2013,05,05,09,14,18.10
2013,05,05,09,15,18.10
2013,05,05,09,16,18.10
2013,05,05,09,17,18.20
2013,05,05,09,18,18.30
2013,05,05,09,19,18.30
2013,05,05,09,20,18.30
2013,05,05,09,21,18.30
2013,05,05,09,22,18.30
2013,05,05,09,23,18.30
2013,05,05,09,24,18.40
2013,05,05,09,25,18.50
2013,05,05,09,26,18.60
2013,05,05,09,27,18.70
2013,05,05,09,28,18.70
2013,05,05,09,29,18.80
2013,05,05,09,30,18.80
2013,05,05,09,31,18.80
2013,05,05,09,32,18.90
2013,05,05,09,33,19.00
2013,05,05,09,34,19.10
2013,05,05,09,35,19.20
2013,05,05,09,36,19.20
2013,05,05,09,37,19.30
2013,05,05,09,38,19.30
2013,05,05,09,39,19.40
2013,05,05,09,40,19.40
2013,05,05,09,41,19.50
2013,05,05,09,42,19.50
2013,05,05,09,43,19.60
2013,05,05,09,44,19.60
2013,05,05,09,45,19.60
2013,05,05,09,46,19.60
2013,05,05,09,47,19.70
2013,05,05,09,48,19.70
2013,05,05,09,49,19.70
2013,05,05,09,50,19.80
2013,05,05,09,51,19.80
2013,05,05,09,52,19.90
2013,05,05,09,53,19.90
2013,05,05,09,54,20.00
2013,05,05,09,55,20.00
2013,05,05,09,56,20.00
2013,05,05,09,57,20.00
2013,05,05,09,58,20.00
2013,05,05,09,59,20.10
2013,05,05,10,00,20.10
2013,05,05,10,01,20.10
2013,05,05,10,02,20.10
2013,05,05,10,03,20.10
2013,05,05,10,04,20.10
2013,05,05,10,05,20.10
2013,05,05,10,06,20.10
2013,05,05,10,07,20.10
2013,05,05,10,08,20.10
2013,05,05,10,09,20.10
2013,05,05,10,10,20.10
2013,05,05,10,11,20.10
2013,05,05,10,12,20.20
2013,05,05,10,13,20.20
2013,05,05,10,14,20.30
2013,05,05,10,15,20.30
2013,05,05,10,16,20.40
2013,05,05,10,17,20.40
2013,05,05,10,18,20.40
2013,05,05,10,19,20.40
2013,05,05,10,20,20.40
2013,05,05,10,21,20.40
2013,05,05,10,22,20.50
2013,05,05,10,23,20.60
2013,05,05,10,24,20.60
2013,05,05,10,25,20.60
2013,05,05,10,26,20.70
2013,05,05,10,27,20.70
2013,05,05,10,28,20.80
2013,05,05,10,29,20.80
2013,05,05,10,30,20.90
2013,05,05,10,31,21.00
2013,05,05,10,32,21.00
2013,05,05,10,33,21.00
2013,05,05,10,34,21.10
2013,05,05,10,35,21.10
2013,05,05,10,36,21.10
2013,05,05,10,37,21.10
2013,05,05,10,38,21.10
2013,05,05,10,39,21.10
2013,05,05,10,40,21.00
2013,05,05,10,41,21.00
2013,05,05,10,42,20.90
2013,05,05,10,43,20.90
2013,05,05,10,44,20.80
2013,05,05,10,45,20.80
2013,05,05,10,46,20.80
2013,05,05,10,47,20.80
2013,05,05,10,48,20.80
2013,05,05,10,49,20.80
2013,05,05,10,50,20.80
2013,05,05,10,51,20.90
2013,05,05,10,52,21.00
2013,05,05,10,53,21.10
2013,05,05,10,54,21.20
2013,05,05,10,55,21.30
2013,05,05,10,56,21.30
2013,05,05,10,57,21.40
2013,05,05,10,58,21.50
2013,05,05,10,59,21.50
2013,05,05,11,00,21.60
2013,05,05,11,01,21.60
2013,05,05,11,02,21.60
2013,05,05,11,03,21.50
2013,05,05,11,04,21.40
2013,05,05,11,05,21.40
2013,05,05,11,06,21.40
2013,05,05,11,07,21.50
2013,05,05,11,08,21.50
2013,05,05,11,09,21.50
2013,05,05,11,10,21.60
2013,05,05,11,11,21.60
2013,05,05,11,12,21.50
2013,05,05,11,13,21.50
2013,05,05,11,14,21.40
2013,05,05,11,15,21.40
2013,05,05,11,16,21.30
2013,05,05,11,17,21.30
2013,05,05,11,18,21.30
2013,05,05,11,19,21.30
2013,05,05,11,20,21.30
2013,05,05,11,21,21.30
2013,05,05,11,22,21.30
2013,05,05,11,23,21.40
2013,05,05,11,24,21.50
2013,05,05,11,25,21.60
2013,05,05,11,26,21.60
2013,05,05,11,27,21.70
2013,05,05,11,28,21.70
2013,05,05,11,29,21.80
2013,05,05,11,30,21.80
2013,05,05,11,31,21.80
2013,05,05,11,32,21.90
2013,05,05,11,33,21.90
2013,05,05,11,34,21.90
2013,05,05,11,35,21.80
2013,05,05,11,36,21.80
2013,05,05,11,37,21.80
2013,05,05,11,38,21.80
2013,05,05,11,39,21.80
2013,05,05,11,40,21.80
2013,05,05,11,41,21.80
2013,05,05,11,42,21.90
2013,05,05,11,43,21.90
2013,05,05,11,44,21.80
2013,05,05,11,45,21.80
2013,05,05,11,46,21.80
2013,05,05,11,47,21.80
2013,05,05,11,48,21.80
2013,05,05,11,49,21.80
2013,05,05,11,50,21.80
2013,05,05,11,51,21.70
2013,05,05,11,52,21.60
2013,05,05,11,53,21.60
2013,05,05,11,54,21.60
2013,05,05,11,55,21.60
2013,05,05,11,56,21.70
2013,05,05,11,57,21.70
2013,05,05,11,58,21.70
2013,05,05,11,59,21.70
2013,05,05,12,00,21.70
2013,05,05,12,01,21.70
2013,05,05,12,02,21.80
2013,05,05,12,03,21.80
2013,05,05,12,04,21.80
2013,05,05,12,05,21.80
2013,05,05,12,06,21.80
2013,05,05,12,07,21.80
2013,05,05,12,08,21.80
2013,05,05,12,09,21.70
2013,05,05,12,10,21.80
2013,05,05,12,11,21.80
2013,05,05,12,12,21.80
2013,05,05,12,13,21.80
2013,05,05,12,14,21.80
2013,05,05,12,15,21.90
2013,05,05,12,16,22.00
2013,05,05,12,17,22.10
2013,05,05,12,18,22.20
2013,05,05,12,19,22.20
2013,05,05,12,20,22.20
2013,05,05,12,21,22.20
2013,05,05,12,22,22.20
2013,05,05,12,23,22.10
2013,05,05,12,24,22.10
2013,05,05,12,25,22.10
2013,05,05,12,26,22.20
2013,05,05,12,27,22.20
2013,05,05,12,28,22.20
2013,05,05,12,29,22.30
2013,05,05,12,30,22.30
2013,05,05,12,31,22.40
2013,05,05,12,32,22.50
2013,05,05,12,33,22.50
2013,05,05,12,34,22.50
2013,05,05,12,35,22.50
2013,05,05,12,36,22.50
2013,05,05,12,37,22.50
2013,05,05,12,38,22.50
2013,05,05,12,39,22.50
2013,05,05,12,40,22.60
2013,05,05,12,41,22.50
2013,05,05,12,42,22.50
2013,05,05,12,43,22.40
2013,05,05,12,44,22.50
2013,05,05,12,45,22.50
2013,05,05,12,46,22.60
2013,05,05,12,47,22.60
2013,05,05,12,48,22.60
2013,05,05,12,49,22.70
2013,05,05,12,50,22.70
2013,05,05,12,51,22.70
2013,05,05,12,52,22.70
2013,05,05,12,53,22.70
2013,05,05,12,54,22.70
2013,05,05,12,55,22.70
2013,05,05,12,56,22.80
2013,05,05,12,57,22.80
2013,05,05,12,58,22.80
2013,05,05,12,59,22.80
2013,05,05,13,00,22.80
2013,05,05,13,01,22.80
2013,05,05,13,02,22.80
2013,05,05,13,03,22.90
2013,05,05,13,04,23.00
2013,05,05,13,05,23.00
2013,05,05,13,06,23.10
2013,05,05,13,07,23.20
2013,05,05,13,08,23.20
2013,05,05,13,09,23.20
2013,05,05,13,10,23.30
2013,05,05,13,11,23.40
2013,05,05,13,12,23.40
2013,05,05,13,13,23.40
2013,05,05,13,14,23.40
2013,05,05,13,15,23.40
2013,05,05,13,16,23.50
2013,05,05,13,17,23.60
2013,05,05,13,18,23.60
2013,05,05,13,19,23.80
2013,05,05,13,20,23.90
2013,05,05,13,21,23.90
2013,05,05,13,22,24.00
2013,05,05,13,23,24.00
2013,05,05,13,24,24.00
2013,05,05,13,25,23.90
2013,05,05,13,26,23.90
2013,05,05,13,27,23.90
2013,05,05,13,28,23.90
2013,05,05,13,29,23.90
2013,05,05,13,30,23.90
2013,05,05,13,31,23.80
2013,05,05,13,32,23.80
2013,05,05,13,33,23.80
2013,05,05,13,34,23.70
2013,05,05,13,35,23.60
2013,05,05,13,36,23.60
2013,05,05,13,37,23.60
2013,05,05,13,38,23.70
2013,05,05,13,39,23.90
2013,05,05,13,40,24.00
2013,05,05,13,41,24.00
2013,05,05,13,42,24.10
2013,05,05,13,43,24.10
2013,05,05,13,44,24.20
2013,05,05,13,45,24.20
2013,05,05,13,46,24.20
2013,05,05,13,47,24.30
2013,05,05,13,48,24.30
2013,05,05,13,49,24.30
2013,05,05,13,50,24.30
2013,05,05,13,51,24.30
2013,05,05,13,52,24.30
2013,05,05,13,53,24.30
2013,05,05,13,54,24.30
2013,05,05,13,55,24.30
2013,05,05,13,56,24.40
2013,05,05,13,57,24.40
2013,05,05,13,58,24.40
2013,05,05,13,59,24.50
2013,05,05,14,00,24.50
2013,05,05,14,01,24.50
2013,05,05,14,02,24.60
2013,05,05,14,03,24.60
2013,05,05,14,04,24.60
2013,05,05,14,05,24.60
2013,05,05,14,06,24.60
2013,05,05,14,07,24.60
2013,05,05,14,08,24.50
2013,05,05,14,09,24.50
2013,05,05,14,10,24.40
2013,05,05,14,11,24.40
2013,05,05,14,12,24.40
2013,05,05,14,13,24.40
2013,05,05,14,14,24.30
2013,05,05,14,15,24.30
2013,05,05,14,16,24.30
2013,05,05,14,17,24.40
2013,05,05,14,18,24.40
2013,05,05,14,19,24.40
2013,05,05,14,20,24.30
2013,05,05,14,21,24.30
2013,05,05,14,22,24.30
2013,05,05,14,23,24.30
2013,05,05,14,24,24.40
2013,05,05,14,25,24.40
2013,05,05,14,26,24.50
2013,05,05,14,27,24.60
2013,05,05,14,28,24.70
2013,05,05,14,29,24.70
2013,05,05,14,30,24.70
2013,05,05,14,31,24.70
2013,05,05,14,32,24.60
2013,05,05,14,33,24.60
2013,05,05,14,34,24.70
2013,05,05,14,35,24.80
2013,05,05,14,36,24.80
2013,05,05,14,37,25.00
2013,05,05,14,38,25.10
2013,05,05,14,39,25.20
2013,05,05,14,40,25.20
2013,05,05,14,41,25.20
2013,05,05,14,42,25.20
2013,05,05,14,43,25.20
2013,05,05,14,44,25.10
2013,05,05,14,45,25.10
2013,05,05,14,46,25.10
2013,05,05,14,47,25.10
2013,05,05,14,48,25.10
2013,05,05,14,49,25.10
2013,05,05,14,50,25.20
2013,05,05,14,51,25.20
2013,05,05,14,52,25.20
2013,05,05,14,53,25.20
2013,05,05,14,54,25.20
2013,05,05,14,55,25.20
2013,05,05,14,56,25.20
2013,05,05,14,57,25.20
2013,05,05,14,58,25.30
2013,05,05,14,59,25.30
2013,05,05,15,00,25.30
2013,05,05,15,01,25.40
2013,05,05,15,02,25.50
2013,05,05,15,03,25.60
2013,05,05,15,04,25.60
2013,05,05,15,05,25.70
2013,05,05,15,06,25.70
2013,05,05,15,07,25.70
2013,05,05,15,08,25.70
2013,05,05,15,09,25.80
2013,05,05,15,10,25.80
2013,05,05,15,11,25.80
2013,05,05,15,12,25.80
2013,05,05,15,13,25.80
2013,05,05,15,14,25.80
2013,05,05,15,15,25.80
2013,05,05,15,16,25.80
2013,05,05,15,17,25.90
2013,05,05,15,18,25.90
2013,05,05,15,19,26.00
2013,05,05,15,20,26.00
2013,05,05,15,21,26.00
2013,05,05,15,22,26.00
2013,05,05,15,23,26.00
2013,05,05,15,24,26.00
2013,05,05,15,25,26.00
2013,05,05,15,26,26.00
2013,05,05,15,27,26.00
2013,05,05,15,28,26.10
2013,05,05,15,29,26.10
2013,05,05,15,30,26.20
2013,05,05,15,31,26.10
2013,05,05,15,32,26.10
2013,05,05,15,33,26.10
2013,05,05,15,34,26.10
2013,05,05,15,35,26.20
2013,05,05,15,36,26.30
2013,05,05,15,37,26.30
2013,05,05,15,38,26.30
2013,05,05,15,39,26.40
2013,05,05,15,40,26.40
2013,05,05,15,41,26.40
2013,05,05,15,42,26.40
2013,05,05,15,43,26.40
2013,05,05,15,44,26.40
2013,05,05,15,45,26.50
2013,05,05,15,46,26.50
2013,05,05,15,47,26.50
2013,05,05,15,48,26.50
2013,05,05,15,49,26.50
2013,05,05,15,50,26.60
2013,05,05,15,51,26.60
2013,05,05,15,52,26.80
2013,05,05,15,53,26.90
2013,05,05,15,54,27.00
2013,05,05,15,55,27.10
2013,05,05,15,56,27.10
2013,05,05,15,57,27.20
2013,05,05,15,58,27.20
2013,05,05,15,59,27.20
2013,05,05,16,00,27.20
2013,05,05,16,01,27.20
2013,05,05,16,02,27.20
2013,05,05,16,03,27.20
2013,05,05,16,04,27.30
2013,05,05,16,05,27.30
2013,05,05,16,06,27.40
2013,05,05,16,07,27.40
2013,05,05,16,08,27.50
2013,05,05,16,09,27.60
2013,05,05,16,10,27.70
2013,05,05,16,11,27.80
2013,05,05,16,12,27.80
2013,05,05,16,13,27.80
2013,05,05,16,14,27.70
2013,05,05,16,15,27.50
2013,05,05,16,16,27.40
2013,05,05,16,17,27.40
2013,05,05,16,18,27.40
2013,05,05,16,19,27.30
2013,05,05,16,20,27.20
2013,05,05,16,21,27.20
2013,05,05,16,22,27.20
2013,05,05,16,23,27.10
2013,05,05,16,24,27.10
2013,05,05,16,25,27.10
2013,05,05,16,26,27.00
2013,05,05,16,27,27.00
2013,05,05,16,28,27.10
2013,05,05,16,29,27.20
2013,05,05,16,30,27.20
2013,05,05,16,31,27.20
2013,05,05,16,32,27.20
2013,05,05,16,33,27.20
2013,05,05,16,34,27.20
2013,05,05,16,35,27.20
2013,05,05,16,36,27.30
2013,05,05,16,37,27.30
2013,05,05,16,38,27.40
2013,05,05,16,39,27.50
2013,05,05,16,40,27.50
2013,05,05,16,41,27.60
2013,05,05,16,42,27.70
2013,05,05,16,43,27.70
2013,05,05,16,44,27.80
2013,05,05,16,45,27.90
2013,05,05,16,46,27.90
2013,05,05,16,47,28.00
2013,05,05,16,48,28.00
2013,05,05,16,49,28.00
2013,05,05,16,50,27.90
2013,05,05,16,51,27.80
2013,05,05,16,52,27.70
2013,05,05,16,53,27.70
2013,05,05,16,54,27.60
2013,05,05,16,55,27.70
2013,05,05,16,56,27.70
2013,05,05,16,57,27.80
2013,05,05,16,58,27.80
2013,05,05,16,59,27.90
2013,05,05,17,00,27.90
2013,05,05,17,01,28.00
2013,05,05,17,02,28.10
2013,05,05,17,03,28.10
2013,05,05,17,04,28.10
2013,05,05,17,05,28.20
2013,05,05,17,06,28.20
2013,05,05,17,07,28.20
2013,05,05,17,08,28.10
2013,05,05,17,09,28.00
2013,05,05,17,10,27.90
2013,05,05,17,11,27.80
2013,05,05,17,12,27.80
2013,05,05,17,13,27.80
2013,05,05,17,14,27.80
2013,05,05,17,15,27.80
2013,05,05,17,16,27.80
2013,05,05,17,17,27.70
2013,05,05,17,18,27.70
2013,05,05,17,19,27.70